Theta_e
307 308 307 306 306 305 304 303 301 297 296 300 301 300 300 300 300 300 300 301 302 304 304 304 305 306 306 306 306 307 307 307 308 308 309 309 311 313
306 307 307 306 306 305 304 303 303 301 297 299 299 300 300 300 299 300 302 302 303 302 304 304 305 304 304 304 305 306 306 306 307 307 308 309 311 312
306 306 308 307 305 306 304 303 302 302 298 299 299 299 300 300 299 301 302 302 301 301 301 303 303 303 304 305 305 305 305 305 306 307 308 307 310 311
306 305 306 306 304 305 305 303 302 302 301 298 300 300 299 299 300 301 301 301 300 299 299 301 302 303 303 304 305 305 306 306 307 307 307 308 310 311
307 304 305 306 303 304 304 302 302 301 301 300 299 299 299 299 301 301 301 300 300 300 300 302 302 303 304 304 304 304 304 304 306 306 307 308 308 310
307 306 305 305 304 304 303 302 302 301 300 299 299 299 299 300 300 300 300 300 301 300 300 300 301 301 302 303 304 305 306 306 305 305 307 306 307 308
307 307 304 304 305 306 303 302 302 301 299 298 298 299 299 300 300 300 300 300 300 300 299 298 298 300 301 302 303 305 305 304 305 305 306 305 305 306
307 306 303 304 305 305 304 303 303 301 299 299 298 299 299 300 301 300 300 298 297 298 298 299 300 301 302 302 303 304 304 304 305 306 305 306 305 306
307 306 302 303 305 306 306 304 303 302 301 300 299 300 301 302 301 300 300 298 298 298 299 299 300 301 302 302 303 304 305 304 305 305 305 305 305 306
307 304 302 302 304 305 306 305 303 303 302 303 305 304 301 300 301 302 301 300 300 300 301 301 302 303 303 304 304 305 305 304 304 305 305 305 307 307
303 302 302 302 304 304 305 305 304 304 305 304 301 301 302 303 303 301 300 299 299 301 302 302 303 304 304 304 304 304 304 305 305 305 305 306 305 307
304 303 302 302 304 304 303 303 302 302 300 300 299 299 301 299 298 298 298 298 300 301 302 303 303 303 305 305 305 304 305 305 305 306 306 308 308 307
300 299 301 303 306 304 302 301 300 300 300 300 302 300 298 297 297 299 299 298 300 301 302 303 304 304 304 306 306 305 306 305 306 306 308 308 307 309
299 299 301 304 305 301 300 300 300 301 302 301 298 298 296 298 298 300 302 301 300 301 303 302 303 304 305 306 306 306 306 306 307 308 308 307 308 309
299 300 304 305 305 303 302 303 303 302 299 298 297 296 298 299 302 302 302 304 307 306 308 308 304 306 307 307 307 307 308 308 308 307 307 308 310 311
301 304 305 305 304 303 303 302 301 299 298 297 296 298 298 300 300 301 302 306 309 306 305 305 306 307 306 307 307 307 307 308 307 307 308 311 311 313
304 304 303 302 302 301 300 299 298 297 296 296 297 298 298 300 300 302 304 308 311 309 308 308 307 307 306 306 306 307 306 307 307 308 310 312 312 313
302 301 301 300 299 299 298 297 296 296 296 297 298 297 298 299 300 302 305 309 310 308 308 307 307 307 306 306 307 307 307 308 309 310 311 309 308 311
300 300 299 298 298 297 297 296 296 296 297 298 297 296 298 299 300 301 304 307 310 310 309 308 307 307 307 307 309 307 309 310 310 310 310 310 308 309
299 298 297 298 297 296 296 295 297 297 298 297 296 296 298 298 299 300 302 305 310 310 309 308 308 307 307 308 308 308 309 309 309 307 308 309 308 308
298 298 298 297 297 296 296 297 297 297 296 296 295 295 297 297 299 300 301 304 310 309 309 308 308 308 308 308 306 304 308 310 311 311 308 306 306 306
299 298 297 296 296 296 297 297 297 296 296 295 295 295 295 297 298 299 300 303 308 308 308 308 308 308 307 307 305 304 303 308 310 309 308 307 307 306
298 297 296 296 296 296 297 297 296 296 296 294 294 294 294 296 298 299 300 302 307 308 308 308 308 307 307 307 306 306 305 306 308 309 308 309 308 308
Wind_Speed
41 44 43 42 42 37 32 27 15 4 4 9 14 18 19 17 14 16 17 18 17 16 18 20 21 21 21 23 25 25 24 24 24 23 21 20 22 20
35 39 43 42 40 39 33 28 26 19 4 14 15 9 17 19 13 15 16 17 19 22 20 20 22 24 26 27 27 25 24 23 23 23 21 22 23 21
34 37 42 43 41 39 35 29 26 24 9 11 13 15 17 22 19 17 18 19 22 22 24 24 26 26 25 24 25 26 26 26 26 23 22 23 22 22
31 34 37 40 37 39 38 35 30 27 23 11 17 19 20 19 19 19 19 21 24 25 25 22 23 25 26 27 28 28 27 27 26 25 24 22 22 22
31 34 34 38 36 38 38 38 32 28 25 16 16 15 18 18 19 19 22 24 23 25 25 24 26 27 27 28 30 31 31 31 28 30 27 23 24 23
32 34 34 39 38 41 40 39 34 28 24 23 20 20 19 18 18 20 23 23 26 27 28 28 28 27 28 28 27 28 30 31 32 34 31 29 25 23
34 32 37 39 42 44 42 39 34 29 25 21 18 15 17 16 19 17 21 27 31 32 34 32 29 27 26 27 29 30 31 31 32 32 32 28 26 25
32 29 31 35 35 33 38 38 35 33 29 23 20 17 21 23 20 21 24 15 5 21 22 26 22 28 31 30 28 26 29 33 33 32 33 29 26 22
33 31 32 32 34 33 29 27 29 28 27 26 24 23 22 22 21 23 25 21 24 32 29 30 24 29 30 28 28 28 26 28 26 27 28 26 26 22
35 35 35 31 34 36 32 27 24 23 21 20 21 19 20 20 21 25 30 30 30 33 26 23 27 31 30 29 30 32 31 30 28 25 21 22 23 21
33 29 30 33 36 36 34 29 25 23 20 18 15 14 16 19 22 25 23 21 21 27 27 27 32 27 25 28 31 31 29 26 25 22 21 22 24 20
28 24 29 36 34 33 34 30 25 21 16 13 14 16 18 23 25 26 32 24 23 15 25 25 27 18 5 20 26 24 22 22 21 20 20 23 22 22
25 26 28 31 34 30 30 26 20 13 9 8 11 15 20 25 27 27 26 26 25 27 31 17 11 13 12 1 10 19 17 20 20 19 20 22 24 26
23 23 29 34 32 26 23 18 13 9 7 6 10 16 20 24 28 28 27 30 34 41 44 26 19 16 13 5 5 17 19 22 21 22 23 23 26 16
21 27 34 34 29 23 19 16 12 9 6 6 10 15 19 26 27 25 27 25 20 12 14 23 30 19 17 9 10 18 23 22 25 24 23 25 21 22
20 32 34 31 28 23 19 14 10 7 4 5 9 14 23 26 23 23 24 21 7 18 23 26 19 22 21 19 18 18 23 8 27 25 24 21 22 29
27 33 31 28 27 21 17 13 10 6 2 2 8 18 24 21 21 24 17 15 10 11 15 19 22 21 23 24 19 16 18 22 24 25 23 26 24 29
28 27 20 22 23 20 19 15 9 5 2 4 12 20 20 18 20 20 18 14 13 13 16 20 26 25 24 21 19 21 22 22 25 27 27 26 21 22
26 20 20 22 21 21 18 13 9 5 5 8 15 20 20 18 17 16 17 14 14 15 16 18 20 17 9 8 17 22 20 20 27 25 24 20 22 19
25 22 22 24 23 20 16 14 9 9 9 12 16 20 20 17 16 17 17 14 12 16 14 14 15 18 14 7 14 20 20 21 24 25 26 25 23 19
24 23 24 23 22 19 17 14 13 12 11 12 18 21 21 18 17 19 16 16 16 17 13 13 19 21 23 22 14 16 22 20 23 27 26 23 16 15
26 25 24 24 21 19 17 16 15 12 11 14 17 22 21 19 19 19 20 16 16 17 18 17 19 22 20 25 17 16 22 21 22 25 19 12 11 8
26 26 26 23 19 17 17 16 15 13 12 13 18 22 22 20 21 21 21 21 20 17 16 17 18 19 17 20 25 16 23 24 25 19 16 9 5 4
Wind_Direction
232 231 230 236 233 231 229 227 199 200 236 229 221 225 220 215 232 249 255 258 255 260 270 268 265 264 266 267 266 264 266 266 266 268 265 268 267 268
232 229 234 234 237 228 225 226 224 213 208 214 225 213 212 209 258 259 259 259 255 268 269 262 263 266 267 267 261 260 260 262 261 261 260 266 265 265
233 229 234 235 231 227 222 218 212 216 204 223 219 221 225 234 264 261 262 258 269 271 270 269 266 266 265 258 255 257 256 255 251 252 256 263 261 261
233 228 229 232 227 227 220 215 213 217 218 201 227 231 242 256 263 266 265 271 278 278 275 266 265 263 259 256 254 251 251 250 247 246 253 258 262 259
232 229 231 229 219 219 216 216 215 214 220 222 226 239 251 256 263 264 274 279 279 279 275 269 268 265 262 258 255 251 250 248 246 243 249 257 258 260
242 240 237 227 218 217 212 214 212 210 215 223 235 246 255 257 260 271 277 283 284 281 281 276 273 271 264 259 257 257 252 252 250 250 246 255 257 251
231 234 235 233 230 225 208 208 208 208 208 217 230 240 246 251 257 276 279 287 289 287 287 283 280 277 269 259 252 249 247 248 248 248 252 254 256 246
237 240 233 229 223 208 212 215 211 206 210 215 224 229 249 263 270 274 278 274 289 292 270 272 274 271 276 273 266 258 249 247 251 247 251 251 255 242
235 222 222 218 210 201 196 202 209 213 223 226 229 240 254 265 274 276 272 262 263 271 277 277 271 263 262 256 254 257 256 253 246 242 249 249 241 238
229 212 206 206 201 198 187 185 196 203 211 224 236 248 260 272 272 276 282 281 278 274 266 267 270 260 259 251 245 244 252 248 245 243 239 233 229 229
203 201 201 204 204 194 181 182 190 201 209 219 240 260 267 269 273 281 277 273 273 272 269 254 263 260 257 247 247 245 244 239 235 232 221 222 216 210
195 210 213 207 189 183 184 182 184 196 209 232 253 262 268 277 281 277 276 262 270 287 270 242 255 254 247 224 225 239 229 220 217 214 213 199 196 192
178 192 197 192 170 175 183 185 196 200 212 232 258 275 284 290 297 301 291 263 261 255 257 241 226 210 216 158 179 204 198 190 199 201 192 182 183 188
175 178 181 162 156 164 167 167 166 168 198 235 271 284 298 307 313 315 311 293 269 260 275 241 220 202 185 148 139 160 172 179 185 180 177 173 178 193
164 173 152 147 146 148 148 145 154 172 192 247 279 298 311 324 333 330 321 317 324 346 290 237 188 191 159 136 138 147 149 147 163 163 168 170 182 176
157 145 136 142 146 136 136 141 151 166 197 266 297 319 336 345 334 325 316 331 46 63 84 129 154 145 123 120 117 118 129 133 156 158 161 164 167 153
138 125 129 132 130 131 128 135 142 144 219 301 337 351 352 347 332 337 342 11 72 100 93 110 129 134 138 124 120 125 118 130 145 153 154 140 150 159
128 124 129 133 133 134 136 135 130 135 86 22 13 7 357 343 335 344 22 27 109 110 106 111 112 107 110 117 128 129 130 135 146 147 142 128 129 160
121 131 133 134 134 140 139 138 137 105 77 48 25 13 12 351 349 0 22 35 95 106 111 123 125 126 119 125 120 134 138 134 135 132 136 142 134 147
133 132 130 135 139 138 138 133 115 99 74 44 31 23 21 357 356 14 19 24 86 100 109 129 131 137 144 134 121 120 141 127 126 116 122 138 131 134
128 130 136 138 140 138 131 119 107 87 68 50 37 31 28 7 9 18 21 44 103 105 96 102 136 140 131 117 101 93 116 151 153 135 128 119 122 134
132 136 140 140 137 132 126 116 103 85 67 50 40 37 34 21 18 20 23 40 75 102 106 117 131 129 125 113 103 100 101 127 146 143 139 147 155 159
134 139 139 134 131 128 120 113 102 84 70 53 44 40 37 30 28 31 33 45 73 96 109 102 110 115 103 119 125 122 127 123 126 120 111 141 194 178